Regional Weather Roundup
Issued by NWS

Home | Current Version | Previous Version | Graphics & Text | Print | Product List | Glossary On
Versions: 1 2 3 4 5 6 7 8 9 10 11 12 13 14 15 16 17 18 19 20 21 22 23 24 25 26 27 28 29 30 31 32 33 34 35 36 37 38 39 40 41 42 43 44 45 46 47 48 49 50
000
ASUS43 KOAX 242102
RWRNE

WEATHER ROUNDUP FOR NEBRASKA
NATIONAL WEATHER SERVICE OMAHA NE
400 PM CDT FRI APR 24 2015

NOTES: SATELLITE DATA IS BEING USED TO AUGMENT CLOUD COVER ABOVE
       12000 FEET.
       "FAIR" INDICATES FEW OR NO CLOUDS BELOW 12,000 FEET WITH NO
       SIGNIFICANT WEATHER AND/OR OBSTRUCTIONS TO VISIBILITY.

  * THESE STATIONS DO NOT REPORT WEATHER SUCH AS RAIN...SNOW OR FOG.

NEZ001>004-019>022-054>056-242200-
NEBRASKA PANHANDLE

CITY           SKY/WX    TMP DP  RH WIND       PRES   REMARKS
SCOTTSBLUFF    PTSUNNY   69  36  29 W9        29.55F
ALLIANCE       MOSUNNY   70  41  34 N8        29.55F
CHADRON        MOSUNNY   69  44  40 N8        29.54F
KIMBALL        CLOUDY    61  35  38 SW10      29.62S THUNDER
SIDNEY         PTSUNNY   64  36  35 W20G29    29.61R
$$

NEZ057>060-069>072-079>082-242200-
SOUTHWEST NEBRASKA

CITY           SKY/WX    TMP DP  RH WIND       PRES   REMARKS
IMPERIAL       MOSUNNY   67  45  45 NE5       29.56F
LEXINGTON      CLOUDY    67  55  65 S7        29.56F
MCCOOK         PTSUNNY   69  53  56 E10       29.54F
OGALLALA       PTSUNNY   69  47  45 NE7       29.55F
$$

NEZ005>010-023>029-035>040-094-242200-
NORTH CENTRAL NEBRASKA

CITY           SKY/WX    TMP DP  RH WIND       PRES   REMARKS
VALENTINE      MOSUNNY   77  36  22 W8        29.51F
AINSWORTH      MOSUNNY   74  39  28 CALM      29.51F
BROKEN BOW     MOSUNNY   70  53  54 S6        29.54F
O`NEILL        PTSUNNY   73  52  47 S14       29.52F
ORD            PTSUNNY   70  53  54 SW8       29.54F
$$

NEZ041-046>049-061>064-073>077-083>087-242200-
SOUTH CENTRAL NEBRASKA

CITY           SKY/WX    TMP DP  RH WIND       PRES   REMARKS
GRAND ISLAND   CLOUDY    65  55  70 S5        29.59F
AURORA         CLOUDY    64  56  77 S7        29.58F
HASTINGS       CLOUDY    60  56  86 S8        29.58F
HEBRON         CLOUDY    61  55  79 S9        29.60S
HOLDREGE       PTSUNNY   66  54  66 SE7       29.56F
KEARNEY *      CLOUDY    64  55  72 SE12      29.58S
YORK           CLOUDY    63  55  77 SE8       29.59F
$$

NEZ011>018-030>034-042>045-242200-
NORTHEAST NEBRASKA

CITY           SKY/WX    TMP DP  RH WIND       PRES   REMARKS
NORFOLK        SUNNY     73  56  54 S16       29.56F
ALBION         MOSUNNY   69  53  57 S9G16     29.56F
BLAIR          CLOUDY    67  52  59 SE8       29.61F
COLUMBUS *     CLOUDY    64  54  68 SE9       29.60F
FREMONT        CLOUDY    67  54  61 SE12G17   29.60F
TEKAMAH        LGT RAIN  72  54  53 S13       29.59F
WAYNE          SUNNY     75  53  46 SW13G18   29.56F
$$

NEZ050>053-065>068-078-088>093-242200-
SOUTHEAST NEBRASKA

CITY           SKY/WX    TMP DP  RH WIND       PRES   REMARKS
LINCOLN        CLOUDY    65  54  67 SE12      29.60F
OMAHA EPPLEY   PTSUNNY   69  53  56 SE13      29.61F
BEATRICE       CLOUDY    62  54  74 S12       29.61F
FALLS CITY     CLOUDY    61  52  72 S13       29.64F
NEBRASKA CITY  CLOUDY    61  47  61 S10       29.64F
PLATTSMOUTH    CLOUDY    64  49  58 SE13      29.63F
$$

NEZ044-045-051>053-067-242200-
OMAHA AREA

CITY           SKY/WX    TMP DP  RH WIND       PRES   REMARKS
OMAHA EPPLEY   PTSUNNY   69  53  56 SE13      29.61F
BLAIR          CLOUDY    67  52  59 SE8       29.61F
FREMONT        CLOUDY    67  54  61 SE12G17   29.60F
MILLARD        CLOUDY    68  54  60 S9        29.60F
OFFUTT AFB     CLOUDY    66  53  62 SE12      29.61F
PLATTSMOUTH    CLOUDY    64  49  58 SE13      29.63F
WAHOO          CLOUDY    67  53  60 S10       29.60F
$$


USA.gov is the U.S. government's official web portal to all federal, state and local government web resources and services.